STARLINK-11480, 62830

Orbit data source: Space-Track

STARLINK-11480, 62830 is a payload satellite owned by SpaceX/Seattle (US) in LEO that was launched on Mon, 27 Jan 2025 UTC via an FALCON 9 launch vehicle from the Air Force Eastern Test Range (AFETR). Payload-class satellites include a variety of spacecraft equipped with specific instruments for various scientific and technological missions. These include communications satellites like Starlink; space stations such as the ISS; scientific satellites like the Hubble; Earth observation satellites from companies like Planet Labs, Umbra, and HawkEye 360; GPS; miniature CubeSats for education and research; and military/defense satellites.

Loading next visibility...
Identifier
62830, 2025-019B
Orbit
LEO
Country
Flag of USUS
Related business
Manufacturer
SpaceX/Seattle
Mission
Operational Commercial Communications
Bus & Motor
STARLINK V2MD, Unknown motor
Mass
960 kg wet, ~910 kg dry
Launch date (UTC)
2025-01-27 (11 months ago)
Launch vehicle
FALCON 9
Launch site
Air Force Eastern Test Range (AFETR)
Object type
Payload
Rocket body
Debris
Shape & HBR
Box + 2 Pan, 18.1 m
Radar Cross Section
36.964 m², Large (>1 m²)

Expand to show TLE details & history
Last TLE update: 15 hours ago

TLE from 15 hours ago
0 STARLINK-11480
1 62830U 25019B   25348.31648722  .00334738  00000-0  24902-2 0  9998
2 62830  42.9987 100.5969 0002272 311.6718  48.3955 15.71014620 50455
Epoch: 2025-12-14T07:35Z
TLE epoch observation values (Epoch: 2025-12-14T07:35:44.495Z)
Latitude
-0.00003°
Longitude
-96.56968°
Altitude
354.751 km
Speed
7.699 km/s
True Right ascension
06h 42m 23s
True Declination
0° 00' 00"
Sunlit
Object was in full shadow at epoch
Visualization orbit readout
Latitude
Unknown
Longitude
Unknown
Altitude
Unknown
Speed
Unknown
Apparent Right ascension
Unknown
Apparent Declination
Unknown
Sunlit
N/A
Visualization observer readout
Local Sidereal Time
20:42:01
Azimuth
Unknown
Elevation
Unknown
Doppler factor
Unknown
Orbital elements
Apogee altitude
359.508 km
Perigee altitude
356.448 km
Semi-major axis
6,736.115 km
Eccentricity
0.00023
Inclination
42.9987°
RAAN
100.5969°
Arg. of periapsis
311.6718°
True anomaly
48.41497°
Mean anomaly
48.3955°
Eccentric anomaly
48.40524°
Mean motion
3.92581 °/min
Orbital period
91.7 mins
BSTAR
0.0024902
Loading maneuver chart data...
Computing Atmospheric mass density...
Loading historical data...
Loading historical data...
Loading historical data...
Loading historical data...
Loading historical data...
Loading historical data...
Loading historical data...

Documentation

Showing up to 5 results
|